Time,TemperatureF,DewpointF,PressureIn,WindDirection,WindDirectionDegrees,WindSpeedMPH,WindSpeedGustMPH,Humidity,HourlyPrecipIn,Conditions,Clouds,dailyrainin,SoftwareType,DateUTC
2013-07-13 00:11:00,74.2,74.0,29.93,NNE,19,0.0,-999.0,98,-99.99,,,0.00,weatherlink.com 1.10,2013-07-13 04:11:00,
2013-07-13 00:26:00,74.5,74.0,29.93,NNE,24,0.0,-999.0,98,-99.99,,,0.00,weatherlink.com 1.10,2013-07-13 04:26:00,
2013-07-13 00:41:00,74.4,74.0,29.93,NNE,24,0.0,-999.0,98,-99.99,,,0.00,weatherlink.com 1.10,2013-07-13 04:41:00,
2013-07-13 00:56:00,74.2,74.0,29.93,NNE,22,0.0,-999.0,98,-99.99,,,0.00,weatherlink.com 1.10,2013-07-13 04:56:00,
2013-07-13 01:11:00,74.0,73.0,29.92,NNE,23,0.0,-999.0,98,-99.99,,,0.00,weatherlink.com 1.10,2013-07-13 05:11:00,
2013-07-13 01:26:00,74.0,73.0,29.91,NNE,27,0.0,-999.0,98,-99.99,,,0.00,weatherlink.com 1.10,2013-07-13 05:26:00,
2013-07-13 01:41:00,73.9,73.0,29.91,NNE,26,0.0,-999.0,98,-99.99,,,0.00,weatherlink.com 1.10,2013-07-13 05:41:00,
2013-07-13 01:56:00,73.7,73.0,29.91,NNE,26,0.0,-999.0,98,-99.99,,,0.00,weatherlink.com 1.10,2013-07-13 05:56:00,
2013-07-13 02:11:00,73.6,73.0,29.91,NNE,26,0.0,-999.0,98,-99.99,,,0.00,weatherlink.com 1.10,2013-07-13 06:11:00,
2013-07-13 02:26:00,73.4,73.0,29.90,NNE,26,0.0,-999.0,98,-99.99,,,0.00,weatherlink.com 1.10,2013-07-13 06:26:00,
2013-07-13 02:41:00,73.3,73.0,29.90,NNE,27,0.0,-999.0,98,-99.99,,,0.00,weatherlink.com 1.10,2013-07-13 06:41:00,
2013-07-13 02:56:00,73.1,73.0,29.90,NNE,26,0.0,-999.0,99,-99.99,,,0.00,weatherlink.com 1.10,2013-07-13 06:56:00,
2013-07-13 03:11:00,73.1,73.0,29.90,NNE,26,0.0,-999.0,99,-99.99,,,0.00,weatherlink.com 1.10,2013-07-13 07:11:00,
2013-07-13 03:26:00,73.0,73.0,29.91,NNE,27,0.0,-999.0,99,-99.99,,,0.00,weatherlink.com 1.10,2013-07-13 07:26:00,
2013-07-13 03:41:00,72.8,72.0,29.91,NNE,26,0.0,-999.0,98,-99.99,,,0.00,weatherlink.com 1.10,2013-07-13 07:41:00,
2013-07-13 03:56:00,72.6,72.0,29.91,NNE,26,0.0,-999.0,99,-99.99,,,0.00,weatherlink.com 1.10,2013-07-13 07:56:00,
2013-07-13 04:11:00,72.6,72.0,29.91,NNE,27,0.0,-999.0,99,-99.99,,,0.00,weatherlink.com 1.10,2013-07-13 08:11:00,
2013-07-13 04:20:00,72.6,72.3,29.92,NNE,20,0.0,0.0,99,0.00,,,0.00,Wunderground v.1.15,2013-07-13 08:20:00,
2013-07-13 04:25:00,72.6,72.3,29.92,NNE,20,0.0,0.0,99,0.00,,,0.00,Wunderground v.1.15,2013-07-13 08:25:00,
2013-07-13 04:30:00,72.6,72.3,29.92,NNE,20,0.0,0.0,99,0.00,,,0.00,Wunderground v.1.15,2013-07-13 08:30:00,
2013-07-13 04:35:00,72.6,72.3,29.92,NNE,20,0.0,0.0,99,0.00,,,0.00,Wunderground v.1.15,2013-07-13 08:35:00,
2013-07-13 04:40:00,72.6,72.3,29.92,NNE,20,0.0,0.0,99,0.00,,,0.00,Wunderground v.1.15,2013-07-13 08:40:00,
2013-07-13 04:50:00,72.5,72.2,29.93,NNE,20,0.0,0.0,99,0.00,,,0.00,Wunderground v.1.15,2013-07-13 08:50:00,
2013-07-13 04:55:00,72.5,72.2,29.93,NNE,20,0.0,0.0,99,0.00,,,0.00,Wunderground v.1.15,2013-07-13 08:55:00,
2013-07-13 05:00:00,72.6,72.3,29.93,NNE,20,0.0,0.0,99,0.00,,,0.00,Wunderground v.1.15,2013-07-13 09:00:00,
2013-07-13 05:05:00,72.6,72.3,29.93,NNE,20,0.0,0.0,99,0.00,,,0.00,Wunderground v.1.15,2013-07-13 09:05:00,
2013-07-13 05:10:00,72.6,72.3,29.93,NNE,20,0.0,0.0,99,0.00,,,0.00,Wunderground v.1.15,2013-07-13 09:10:00,
2013-07-13 05:15:00,72.6,72.3,29.93,NNE,20,0.0,0.0,99,0.00,,,0.00,Wunderground v.1.15,2013-07-13 09:15:00,
2013-07-13 05:20:00,72.5,72.2,29.93,NNE,20,0.0,0.0,99,0.00,,,0.00,Wunderground v.1.15,2013-07-13 09:20:00,
2013-07-13 05:25:00,72.6,72.3,29.93,NNE,20,0.0,0.0,99,0.00,,,0.00,Wunderground v.1.15,2013-07-13 09:25:00,
2013-07-13 05:35:00,72.7,72.4,29.93,NNE,20,0.0,0.0,99,0.00,,,0.00,Wunderground v.1.15,2013-07-13 09:35:00,
2013-07-13 05:40:00,72.6,72.3,29.93,NNE,20,0.0,0.0,99,0.00,,,0.00,Wunderground v.1.15,2013-07-13 09:40:00,
2013-07-13 05:45:00,72.6,72.3,29.92,NNE,20,0.0,0.0,99,0.00,,,0.00,Wunderground v.1.15,2013-07-13 09:45:00,
2013-07-13 05:50:00,72.7,72.4,29.92,NNE,20,0.0,0.0,99,0.00,,,0.00,Wunderground v.1.15,2013-07-13 09:50:00,
2013-07-13 05:55:00,72.8,72.5,29.93,NNE,20,0.0,0.0,99,0.00,,,0.00,Wunderground v.1.15,2013-07-13 09:55:00,
2013-07-13 06:00:00,72.7,72.4,29.93,NNE,20,0.0,0.0,99,0.00,,,0.00,Wunderground v.1.15,2013-07-13 10:00:00,
2013-07-13 06:05:00,72.7,72.4,29.93,NNE,20,0.0,0.0,99,0.00,,,0.00,Wunderground v.1.15,2013-07-13 10:05:00,
2013-07-13 06:10:00,72.8,72.5,29.93,NNE,20,0.0,0.0,99,0.00,,,0.00,Wunderground v.1.15,2013-07-13 10:10:00,
2013-07-13 06:15:00,72.8,72.5,29.93,NNE,20,0.0,0.0,99,0.00,,,0.00,Wunderground v.1.15,2013-07-13 10:15:00,
2013-07-13 06:25:00,72.8,72.5,29.93,NNE,20,0.0,0.0,99,0.00,,,0.00,Wunderground v.1.15,2013-07-13 10:25:00,
2013-07-13 06:30:00,72.8,72.5,29.93,NNE,20,0.0,0.0,99,0.00,,,0.00,Wunderground v.1.15,2013-07-13 10:30:00,
2013-07-13 06:35:00,72.8,72.5,29.93,NNE,20,0.0,0.0,99,0.00,,,0.00,Wunderground v.1.15,2013-07-13 10:35:00,
2013-07-13 06:40:00,72.7,72.4,29.93,NNE,20,0.0,0.0,99,0.00,,,0.00,Wunderground v.1.15,2013-07-13 10:40:00,
2013-07-13 06:50:00,72.8,72.5,29.93,NNE,20,0.0,0.0,99,0.00,,,0.00,Wunderground v.1.15,2013-07-13 10:50:00,
2013-07-13 06:55:00,72.9,72.6,29.93,NNE,20,0.0,0.0,99,0.00,,,0.00,Wunderground v.1.15,2013-07-13 10:55:00,
2013-07-13 07:00:00,72.9,72.6,29.93,NNE,20,0.0,0.0,99,0.00,,,0.00,Wunderground v.1.15,2013-07-13 11:00:00,
2013-07-13 07:05:00,72.9,72.6,29.93,NNE,20,0.0,0.0,99,0.00,,,0.00,Wunderground v.1.15,2013-07-13 11:05:00,
2013-07-13 07:10:00,72.9,72.6,29.93,NNE,20,0.0,0.0,99,0.00,,,0.00,Wunderground v.1.15,2013-07-13 11:10:00,
2013-07-13 07:20:00,73.0,72.7,29.93,NNE,20,0.0,0.0,99,0.00,,,0.00,Wunderground v.1.15,2013-07-13 11:20:00,
2013-07-13 07:25:00,73.1,72.8,29.93,NNE,20,0.0,0.0,99,0.00,,,0.00,Wunderground v.1.15,2013-07-13 11:25:00,
2013-07-13 07:30:00,73.1,72.8,29.93,NNE,20,0.0,0.0,99,0.00,,,0.00,Wunderground v.1.15,2013-07-13 11:30:00,
2013-07-13 07:35:00,73.1,72.8,29.93,NNE,20,0.0,0.0,99,0.00,,,0.00,Wunderground v.1.15,2013-07-13 11:35:00,
2013-07-13 07:40:00,73.1,72.8,29.93,NNE,20,0.0,0.0,99,0.00,,,0.00,Wunderground v.1.15,2013-07-13 11:40:00,
2013-07-13 07:45:00,73.2,72.9,29.93,NNE,20,0.0,0.0,99,0.00,,,0.00,Wunderground v.1.15,2013-07-13 11:45:00,
2013-07-13 07:50:00,73.3,73.0,29.93,NNE,20,0.0,0.0,99,0.00,,,0.00,Wunderground v.1.15,2013-07-13 11:50:00,
2013-07-13 07:55:00,73.4,73.1,29.93,NNE,20,0.0,0.0,99,0.00,,,0.00,Wunderground v.1.15,2013-07-13 11:55:00,
2013-07-13 08:00:00,73.7,73.4,29.94,NNE,20,0.0,0.0,99,0.00,,,0.00,Wunderground v.1.15,2013-07-13 12:00:00,
2013-07-13 08:10:00,74.1,73.8,29.94,NNE,20,0.0,0.0,99,0.00,,,0.00,Wunderground v.1.15,2013-07-13 12:10:00,
2013-07-13 08:15:00,74.4,74.1,29.94,NNE,16,0.0,0.0,99,0.00,,,0.00,Wunderground v.1.15,2013-07-13 12:15:00,
2013-07-13 08:20:00,74.6,74.3,29.94,NNE,15,0.0,0.0,99,0.00,,,0.00,Wunderground v.1.15,2013-07-13 12:20:00,
2013-07-13 08:26:00,74.8,75.0,29.94,NNE,24,0.0,-999.0,99,-99.99,,,0.00,weatherlink.com 1.10,2013-07-13 12:26:00,
2013-07-13 08:35:00,75.5,75.2,29.95,NNE,18,0.0,0.0,99,0.00,,,0.00,Wunderground v.1.15,2013-07-13 12:35:00,
2013-07-13 08:40:00,75.8,75.5,29.95,NNE,18,0.0,0.0,99,0.00,,,0.00,Wunderground v.1.15,2013-07-13 12:40:00,
2013-07-13 08:45:00,76.2,75.9,29.95,NW,323,0.0,0.0,99,0.00,,,0.00,Wunderground v.1.15,2013-07-13 12:45:00,
2013-07-13 08:55:00,76.5,76.2,29.96,NW,323,0.0,0.0,99,0.00,,,0.00,Wunderground v.1.15,2013-07-13 12:55:00,
2013-07-13 09:00:00,76.7,76.4,29.96,NW,323,0.0,0.0,99,0.00,,,0.00,Wunderground v.1.15,2013-07-13 13:00:00,
2013-07-13 09:05:00,76.9,76.6,29.96,NW,323,0.0,0.0,99,0.00,,,0.00,Wunderground v.1.15,2013-07-13 13:05:00,
2013-07-13 09:10:00,77.1,76.5,29.96,NW,323,0.0,0.0,98,0.00,,,0.00,Wunderground v.1.15,2013-07-13 13:10:00,
2013-07-13 09:15:00,77.8,77.2,29.96,ENE,66,0.0,0.0,98,0.00,,,0.00,Wunderground v.1.15,2013-07-13 13:15:00,
2013-07-13 09:20:00,78.4,78.1,29.96,ENE,68,0.0,0.0,99,0.00,,,0.00,Wunderground v.1.15,2013-07-13 13:20:00,
2013-07-13 09:25:00,78.2,77.3,29.96,ENE,68,0.0,0.0,97,0.00,,,0.00,Wunderground v.1.15,2013-07-13 13:25:00,
2013-07-13 09:30:00,78.6,78.0,29.96,ENE,66,0.0,0.0,98,0.00,,,0.00,Wunderground v.1.15,2013-07-13 13:30:00,
2013-07-13 09:35:00,78.9,78.3,29.96,ENE,66,0.0,0.0,98,0.00,,,0.00,Wunderground v.1.15,2013-07-13 13:35:00,
2013-07-13 09:41:00,78.9,78.0,29.97,ENE,71,0.0,-999.0,98,-99.99,,,0.00,weatherlink.com 1.10,2013-07-13 13:41:00,
2013-07-13 09:50:00,79.3,77.7,29.96,NNE,31,0.0,0.0,95,0.00,,,0.00,Wunderground v.1.15,2013-07-13 13:50:00,
2013-07-13 09:55:00,80.1,77.6,29.96,East,79,0.0,0.0,92,0.00,,,0.00,Wunderground v.1.15,2013-07-13 13:55:00,
2013-07-13 10:00:00,80.5,77.3,29.96,ENE,63,0.0,0.0,90,0.00,,,0.00,Wunderground v.1.15,2013-07-13 14:00:00,
2013-07-13 10:05:00,81.5,78.3,29.96,ENE,61,0.0,0.0,90,0.00,,,0.00,Wunderground v.1.15,2013-07-13 14:05:00,
2013-07-13 10:10:00,82.5,78.6,29.96,ENE,57,0.0,0.0,88,0.00,,,0.00,Wunderground v.1.15,2013-07-13 14:10:00,
2013-07-13 10:15:00,82.8,78.9,29.97,ENE,70,0.0,1.0,88,0.00,,,0.00,Wunderground v.1.15,2013-07-13 14:15:00,
2013-07-13 10:20:00,82.0,77.4,29.96,North,1,0.0,0.0,86,0.00,,,0.00,Wunderground v.1.15,2013-07-13 14:20:00,
2013-07-13 10:26:00,81.5,77.0,29.97,NNE,19,0.0,-999.0,86,-99.99,,,0.00,weatherlink.com 1.10,2013-07-13 14:26:00,
2013-07-13 10:35:00,81.4,77.8,29.97,ESE,102,0.0,0.0,89,0.00,,,0.00,Wunderground v.1.15,2013-07-13 14:35:00,
2013-07-13 10:40:00,81.3,77.4,29.97,NNE,32,0.0,0.0,88,0.00,,,0.00,Wunderground v.1.15,2013-07-13 14:40:00,
2013-07-13 10:45:00,81.3,77.4,29.97,NNE,13,0.0,0.0,88,0.00,,,0.00,Wunderground v.1.15,2013-07-13 14:45:00,
2013-07-13 10:50:00,81.3,76.7,29.97,NNE,13,0.0,0.0,86,0.00,,,0.00,Wunderground v.1.15,2013-07-13 14:50:00,
2013-07-13 10:55:00,81.6,77.4,29.97,NNE,13,0.0,0.0,87,0.00,,,0.00,Wunderground v.1.15,2013-07-13 14:55:00,
2013-07-13 11:00:00,81.6,77.4,29.97,NNE,12,0.0,0.0,87,0.00,,,0.00,Wunderground v.1.15,2013-07-13 15:00:00,
2013-07-13 11:10:00,82.2,78.6,29.97,North,359,0.0,0.0,89,0.00,,,0.00,Wunderground v.1.15,2013-07-13 15:10:00,
2013-07-13 11:15:00,82.0,77.0,29.97,North,360,0.0,0.0,85,0.00,,,0.00,Wunderground v.1.15,2013-07-13 15:15:00,
2013-07-13 11:20:00,82.3,77.7,29.97,North,1,0.0,0.0,86,0.00,,,0.00,Wunderground v.1.15,2013-07-13 15:20:00,
2013-07-13 11:25:00,82.6,78.7,29.97,ENE,58,0.0,0.0,88,0.00,,,0.00,Wunderground v.1.15,2013-07-13 15:25:00,
2013-07-13 11:30:00,82.8,77.5,29.97,NW,308,0.0,0.0,84,0.00,,,0.00,Wunderground v.1.15,2013-07-13 15:30:00,
2013-07-13 11:35:00,83.3,78.7,29.97,NNE,33,0.0,0.0,86,0.00,,,0.00,Wunderground v.1.15,2013-07-13 15:35:00,
2013-07-13 11:41:00,83.9,79.0,29.97,WSW,239,0.0,-999.0,84,-99.99,,,0.00,weatherlink.com 1.10,2013-07-13 15:41:00,
2013-07-13 11:50:00,85.5,77.5,29.97,ENE,77,0.0,3.0,77,0.00,,,0.00,Wunderground v.1.15,2013-07-13 15:50:00,
2013-07-13 11:55:00,85.3,78.0,29.97,East,79,1.0,3.0,79,0.00,,,0.00,Wunderground v.1.15,2013-07-13 15:55:00,
2013-07-13 12:00:00,85.2,78.7,29.96,East,89,1.0,1.0,81,0.00,,,0.00,Wunderground v.1.15,2013-07-13 16:00:00,
2013-07-13 12:05:00,85.2,79.1,29.96,SE,129,1.0,1.0,82,0.00,,,0.00,Wunderground v.1.15,2013-07-13 16:05:00,
2013-07-13 12:10:00,85.5,78.6,29.96,ESE,107,1.0,1.0,80,0.00,,,0.00,Wunderground v.1.15,2013-07-13 16:10:00,
2013-07-13 12:15:00,85.7,79.6,29.96,East,91,1.0,1.0,82,0.00,,,0.00,Wunderground v.1.15,2013-07-13 16:15:00,
2013-07-13 12:20:00,85.6,77.9,29.96,North,7,1.0,1.0,78,0.00,,,0.00,Wunderground v.1.15,2013-07-13 16:20:00,
2013-07-13 12:26:00,85.9,78.0,29.96,East,98,2.0,-999.0,77,-99.99,,,0.00,weatherlink.com 1.10,2013-07-13 16:26:00,
2013-07-13 12:35:00,85.3,77.3,29.96,ENE,75,2.0,2.0,77,0.00,,,0.00,Wunderground v.1.15,2013-07-13 16:35:00,
2013-07-13 12:40:00,85.7,77.3,29.96,NE,37,1.0,2.0,76,0.00,,,0.00,Wunderground v.1.15,2013-07-13 16:40:00,
2013-07-13 12:45:00,85.8,77.8,29.96,ESE,103,1.0,2.0,77,0.00,,,0.00,Wunderground v.1.15,2013-07-13 16:45:00,
2013-07-13 12:50:00,85.3,76.9,29.96,ESE,109,1.0,2.0,76,0.00,,,0.00,Wunderground v.1.15,2013-07-13 16:50:00,
2013-07-13 12:55:00,84.8,76.4,29.96,NE,41,2.0,2.0,76,0.00,,,0.00,Wunderground v.1.15,2013-07-13 16:55:00,
2013-07-13 13:05:00,84.4,76.8,29.96,ESE,114,2.0,3.0,78,0.00,,,0.00,Wunderground v.1.15,2013-07-13 17:05:00,
2013-07-13 13:11:00,84.0,77.0,29.96,North,355,0.0,-999.0,78,-99.99,,,0.00,weatherlink.com 1.10,2013-07-13 17:11:00,
2013-07-13 13:20:00,83.3,75.3,29.95,NE,38,2.0,2.0,77,0.00,,,0.00,Wunderground v.1.15,2013-07-13 17:20:00,
2013-07-13 13:25:00,82.7,76.3,29.96,NNW,330,1.0,2.0,81,0.00,,,0.00,Wunderground v.1.15,2013-07-13 17:25:00,
2013-07-13 13:30:00,82.8,76.7,29.96,ENE,59,1.0,3.0,82,0.00,,,0.00,Wunderground v.1.15,2013-07-13 17:30:00,
2013-07-13 13:41:00,82.7,76.0,29.96,NE,48,1.0,-999.0,81,-99.99,,,0.00,weatherlink.com 1.10,2013-07-13 17:41:00,
2013-07-13 13:56:00,84.5,77.0,29.96,ENE,66,2.0,-999.0,79,-99.99,,,0.00,weatherlink.com 1.10,2013-07-13 17:56:00,
2013-07-13 14:11:00,85.0,78.0,29.95,NE,46,0.0,-999.0,79,-99.99,,,0.00,weatherlink.com 1.10,2013-07-13 18:11:00,
2013-07-13 14:26:00,84.3,77.0,29.95,ENE,71,3.0,-999.0,79,-99.99,,,0.00,weatherlink.com 1.10,2013-07-13 18:26:00,
2013-07-13 14:41:00,84.2,78.0,29.95,East,93,1.0,-999.0,81,-99.99,,,0.00,weatherlink.com 1.10,2013-07-13 18:41:00,
2013-07-13 14:56:00,84.3,79.0,29.95,ENE,58,1.0,-999.0,83,-99.99,,,0.00,weatherlink.com 1.10,2013-07-13 18:56:00,
2013-07-13 15:11:00,84.4,78.0,29.94,East,80,3.0,-999.0,81,-99.99,,,0.00,weatherlink.com 1.10,2013-07-13 19:11:00,
2013-07-13 15:26:00,83.5,78.0,29.95,NW,306,1.0,-999.0,83,-99.99,,,0.00,weatherlink.com 1.10,2013-07-13 19:26:00,
2013-07-13 15:41:00,84.0,78.0,29.95,ENE,71,1.0,-999.0,81,-99.99,,,0.00,weatherlink.com 1.10,2013-07-13 19:41:00,
2013-07-13 15:56:00,83.6,78.0,29.95,NNE,19,1.0,-999.0,82,-99.99,,,0.00,weatherlink.com 1.10,2013-07-13 19:56:00,
2013-07-13 16:11:00,82.7,78.0,29.95,West,262,0.0,-999.0,84,-99.99,,,0.00,weatherlink.com 1.10,2013-07-13 20:11:00,
2013-07-13 16:26:00,82.9,78.0,29.95,ENE,61,0.0,-999.0,84,-99.99,,,0.00,weatherlink.com 1.10,2013-07-13 20:26:00,
2013-07-13 16:41:00,82.5,77.0,29.95,ESE,103,1.0,-999.0,82,-99.99,,,0.00,weatherlink.com 1.10,2013-07-13 20:41:00,
2013-07-13 16:56:00,81.5,76.0,29.96,ENE,75,1.0,-999.0,84,-99.99,,,0.00,weatherlink.com 1.10,2013-07-13 20:56:00,
2013-07-13 17:11:00,80.9,76.0,29.97,SE,128,0.0,-999.0,86,-99.99,,,0.00,weatherlink.com 1.10,2013-07-13 21:11:00,
2013-07-13 17:26:00,80.4,76.0,29.97,ENE,62,0.0,-999.0,87,-99.99,,,0.00,weatherlink.com 1.10,2013-07-13 21:26:00,
2013-07-13 17:41:00,80.2,76.0,29.98,ENE,67,0.0,-999.0,87,-99.99,,,0.00,weatherlink.com 1.10,2013-07-13 21:41:00,
2013-07-13 17:56:00,79.8,76.0,29.98,NNE,22,0.0,-999.0,87,-99.99,,,0.00,weatherlink.com 1.10,2013-07-13 21:56:00,
2013-07-13 18:11:00,79.1,74.0,29.98,East,88,0.0,-999.0,84,-99.99,,,0.00,weatherlink.com 1.10,2013-07-13 22:11:00,
2013-07-13 18:26:00,76.1,72.0,29.96,NNE,25,0.0,-999.0,88,-99.99,,,0.19,weatherlink.com 1.10,2013-07-13 22:26:00,
2013-07-13 18:41:00,74.4,72.0,29.97,ENE,64,1.0,-999.0,92,-99.99,,,0.21,weatherlink.com 1.10,2013-07-13 22:41:00,
2013-07-13 18:56:00,73.1,72.0,29.97,NNE,12,0.0,-999.0,95,-99.99,,,0.22,weatherlink.com 1.10,2013-07-13 22:56:00,
2013-07-13 19:11:00,73.1,72.0,29.98,West,280,0.0,-999.0,96,-99.99,,,0.22,weatherlink.com 1.10,2013-07-13 23:11:00,
2013-07-13 19:26:00,73.1,72.0,29.97,WNW,298,0.0,-999.0,97,-99.99,,,0.23,weatherlink.com 1.10,2013-07-13 23:26:00,
2013-07-13 19:42:00,73.2,72.0,29.97,East,86,0.0,-999.0,97,-99.99,,,0.23,weatherlink.com 1.10,2013-07-13 23:42:00,
2013-07-13 19:57:00,73.1,72.0,29.96,East,86,0.0,-999.0,97,-99.99,,,0.24,weatherlink.com 1.10,2013-07-13 23:57:00,
2013-07-13 20:12:00,72.7,72.0,29.95,NE,50,0.0,-999.0,97,-99.99,,,0.24,weatherlink.com 1.10,2013-07-14 00:12:00,
2013-07-13 20:27:00,72.3,71.0,29.95,ENE,59,0.0,-999.0,97,-99.99,,,0.24,weatherlink.com 1.10,2013-07-14 00:27:00,
2013-07-13 20:42:00,72.1,71.0,29.94,NE,47,0.0,-999.0,97,-99.99,,,0.24,weatherlink.com 1.10,2013-07-14 00:42:00,
2013-07-13 20:57:00,71.8,71.0,29.94,NE,47,0.0,-999.0,97,-99.99,,,0.24,weatherlink.com 1.10,2013-07-14 00:57:00,
2013-07-13 21:12:00,71.7,71.0,29.93,NE,47,0.0,-999.0,98,-99.99,,,0.24,weatherlink.com 1.10,2013-07-14 01:12:00,
2013-07-13 21:27:00,71.7,71.0,29.94,NE,47,0.0,-999.0,98,-99.99,,,0.24,weatherlink.com 1.10,2013-07-14 01:27:00,
2013-07-13 21:42:00,71.8,71.0,29.94,NE,47,0.0,-999.0,98,-99.99,,,0.24,weatherlink.com 1.10,2013-07-14 01:42:00,
2013-07-13 21:57:00,71.9,71.0,29.95,ENE,63,0.0,-999.0,98,-99.99,,,0.24,weatherlink.com 1.10,2013-07-14 01:57:00,
2013-07-13 22:12:00,71.8,71.0,29.96,NE,55,0.0,-999.0,98,-99.99,,,0.24,weatherlink.com 1.10,2013-07-14 02:12:00,
2013-07-13 22:27:00,71.9,71.0,29.98,NE,55,0.0,-999.0,98,-99.99,,,0.24,weatherlink.com 1.10,2013-07-14 02:27:00,
2013-07-13 22:42:00,71.9,71.0,29.98,NE,55,0.0,-999.0,98,-99.99,,,0.24,weatherlink.com 1.10,2013-07-14 02:42:00,
2013-07-13 22:57:00,71.9,71.0,29.99,NE,55,0.0,-999.0,98,-99.99,,,0.24,weatherlink.com 1.10,2013-07-14 02:57:00,
2013-07-13 23:12:00,72.2,72.0,30.00,ENE,58,0.0,-999.0,98,-99.99,,,0.24,weatherlink.com 1.10,2013-07-14 03:12:00,
2013-07-13 23:27:00,72.2,72.0,30.00,ENE,58,0.0,-999.0,98,-99.99,,,0.24,weatherlink.com 1.10,2013-07-14 03:27:00,
2013-07-13 23:42:00,72.2,72.0,30.00,ENE,58,0.0,-999.0,98,-99.99,,,0.24,weatherlink.com 1.10,2013-07-14 03:42:00,
2013-07-13 23:57:00,72.2,72.0,30.00,ENE,57,0.0,-999.0,98,-99.99,,,0.24,weatherlink.com 1.10,2013-07-14 03:57:00,